Location: Anan
(43.3550°N, 0.8171°E)
Time: 07:47:39
(UTC+00:00)

Okean 1-7 Rocket - Pass Details

Date: 14 May 2026
Orbit: 611 x 641 km, 82.5° (Epoch: 6 June)

Event Time Altitude Azimuth Distance (km) Brightness Sun altitude
Rises 21:23:04 0° 356° (N) 2,925 8.0 -19.0°
Reaches altitude 10° 21:25:22 10° 2° (N) 2,018 6.9 -19.2°
Maximum altitude 21:29:44 51° 78° (ENE) 798 3.9 -19.7°
Enters shadow 21:30:36 44° 117° (ESE) 880 3.9 -19.8°
